Weather reports worldwide

Advertisment
Greifswald, Germany (10184): temperature & dewpoint: 11.01.2021 23:00:00 - 17.01.2021 23:00:00 (CET)Greifswald, Germany (10184): temperature 5cm & temperature -5cm: 11.01.2021 23:00:00 - 17.01.2021 23:00:00 (CET)Greifswald, Germany (10184): temperature -20cm & temperature -100cm: 11.01.2021 23:00:00 - 17.01.2021 23:00:00 (CET)Greifswald, Germany (10184): wind speed & gusts: 11.01.2021 23:00:00 - 17.01.2021 23:00:00 (CET)Greifswald, Germany (10184): wind direction: 11.01.2021 23:00:00 - 17.01.2021 23:00:00 (CET)Greifswald, Germany (10184): reduced air pressure: 11.01.2021 23:00:00 - 17.01.2021 23:00:00 (CET)Greifswald, Germany (10184): visibility: 11.01.2021 23:00:00 - 17.01.2021 23:00:00 (CET)Greifswald, Germany (10184): sunshine duration: 11.01.2021 23:00:00 - 17.01.2021 23:00:00 (CET)Greifswald, Germany (10184): precipitation: 11.01.2021 23:00:00 - 17.01.2021 23:00:00 (CET)
Date & Time tt [°C] td [°C] tt 5cm [°C] tt -5cm [°C] tt -20cm [°C] tt -100cm [°C] ff [km/h] ff [kn] fx [km/h] fx [kn] dd ppp [hPa] vv [km] sd [min] rr [mm]
17.01.2021 23:00:00 -5,2 -6,4 -6,7 -0,4 0,6 4,5 10 5 16 9 SSE 1021,7 14 0 0,0
17.01.2021 22:00:00 -4,0 -5,3 -5,5 -0,3 0,6 4,5 8 5 17 9 SSE 1021,8 16 0 0,0
17.01.2021 21:00:00 -2,5 -4,2 -4,5 -0,2 0,6 4,5 6 3 13 7 SSE 1021,8 21 0 0,0
17.01.2021 20:00:00 -1,7 -3,8 -2,4 -0,1 0,6 4,5 6 3 13 7 S 1022,0 21 0 0,0
17.01.2021 19:00:00 -1,6 -3,6 -2,2 -0,1 0,6 4,6 8 4 16 9 S 1021,9 20 0 0,0
17.01.2021 18:00:00 -1,5 -3,3 -2,1 -0,1 0,6 4,6 5 3 15 8 SSE 1021,7 18 0 0,0
17.01.2021 17:00:00 -1,3 -3,1 -2,1 -0,1 0,6 4,6 6 4 13 7 SSE 1021,4 20 0 0,0
17.01.2021 16:00:00 -0,7 -3,0 -1,1 -0,1 0,6 4,6 8 5 13 7 S 1021,0 17 0 0,0
17.01.2021 15:00:00 -0,3 -2,5 -0,4 -0,1 0,6 4,6 6 4 18 10 S 1020,7 9 0 0,0
17.01.2021 14:00:00 -0,3 -2,6 -0,2 -0,1 0,6 4,6 6 4 15 8 SE 1020,3 10 0 0,0
17.01.2021 13:00:00 -0,3 -2,4 -0,1 -0,1 0,6 4,6 6 3 11 6 SSE 1020,6 16 0 0,0
17.01.2021 12:00:00 -0,4 -2,4 -0,2 -0,2 0,6 4,6 8 4 13 7 S 1020,7 36 0 0,0
17.01.2021 11:00:00 -0,7 -2,5 -0,6 -0,2 0,6 4,6 5 3 9 5 SE 1020,4 29 0 0,0
17.01.2021 10:00:00 -1,1 -2,3 -1,2 -0,2 0,6 4,6 4 2 6 3 SE 1019,8 22 0 0,0
17.01.2021 09:00:00 -1,5 -2,3 -1,6 -0,2 0,6 4,6 2 1 5 3 E 1019,4 19 0 0,0
17.01.2021 08:00:00 -1,5 -2,2 -1,8 -0,2 0,6 4,6 4 2 7 4 SW 1018,9 18 0 0,5
17.01.2021 07:00:00 -1,3 -2,7 -1,6 -0,3 0,6 4,6 0 0 16 9 N 1018,5 13 0 0,0
17.01.2021 06:00:00 -1,4 -3,3 -1,7 -0,3 0,6 4,6 3 2 12 7 SW 1018,0 42 0 0,0
17.01.2021 05:00:00 -1,7 -3,6 -1,9 -0,3 0,6 4,6 6 3 9 5 W 1017,9 39 0 0,0
17.01.2021 04:00:00 -2,1 -3,9 -2,3 -0,3 0,6 4,6 5 3 11 6 W 1017,9 40 0 0,0
17.01.2021 03:00:00 -2,7 -4,4 -3,0 -0,4 0,6 4,6 8 4 15 8 W 1018,1 39 0 0,0
17.01.2021 02:00:00 -3,3 -5,0 -4,8 -0,4 0,6 4,6 9 5 15 8 W 1018,3 48 0 0,0
17.01.2021 01:00:00 -2,9 -4,7 -5,5 -0,3 0,7 4,6 7 4 13 7 W 1018,6 48 0 0,0
17.01.2021 00:00:00 -2,3 -4,5 -4,2 -0,2 0,7 4,6 7 4 15 8 W 1018,9 58 0 0,0
16.01.2021 23:00:00 -1,6 -4,3 -2,1 -0,2 0,7 4,6 11 6 17 9 W 1018,9 52 0 0,0
16.01.2021 22:00:00 -1,7 -4,2 -1,9 -0,2 0,7 4,6 9 5 18 10 W 1019,2 65 0 0,0
16.01.2021 21:00:00 -2,0 -4,4 -2,7 -0,2 0,7 4,7 10 5 15 8 W 1019,4 56 0 0,0
16.01.2021 20:00:00 -1,7 -4,2 -2,5 -0,1 0,7 4,7 10 5 15 8 W 1019,5 55 0 0,0
16.01.2021 19:00:00 -2,1 -4,3 -3,5 -0,1 0,7 4,7 11 6 21 11 W 1019,6 51 0 0,0
16.01.2021 18:00:00 -1,9 -4,4 -3,1 -0,1 0,7 4,7 16 9 22 12 W 1019,8 59 0 0,0
16.01.2021 17:00:00 -1,7 -4,4 -2,5 0,0 0,7 4,7 15 8 23 12 W 1020,3 74 0 0,0
16.01.2021 16:00:00 -1,6 -4,7 -1,7 0,0 0,7 4,7 16 9 24 13 WNW 1021,0 62 0 0,0
16.01.2021 15:00:00 -1,7 -4,7 -1,5 0,0 0,7 4,7 14 8 31 17 WNW 1021,1 65 0 0,0
16.01.2021 14:00:00 -1,4 -4,8 -1,0 0,0 0,7 4,7 21 12 29 16 NW 1021,2 75 0 0,0
16.01.2021 13:00:00 -1,4 -4,6 -0,9 -0,1 0,7 4,7 19 11 29 16 WNW 1021,6 71 0 0,0
16.01.2021 12:00:00 -1,4 -5,1 -1,3 -0,1 0,8 4,7 18 10 29 16 NW 1022,1 75 11 0,0
16.01.2021 11:00:00 -1,7 -6,1 -1,2 -0,1 0,8 4,7 16 9 27 14 NW 1022,9 50 24 0,0
16.01.2021 10:00:00 -2,2 -6,2 -2,5 -0,1 0,8 4,7 14 8 23 12 WNW 1023,0 73 0 0,0
16.01.2021 09:00:00 -2,1 -5,1 -2,2 -0,1 0,8 4,7 9 5 16 9 NNW 1023,3 47 0 0,0
16.01.2021 08:00:00 -2,3 -5,3 -2,9 -0,1 0,8 4,7 5 3 9 5 WSW 1023,3 47 0 0,0
16.01.2021 07:00:00 -2,5 -5,8 -3,2 -0,1 0,8 4,7 5 3 9 5 WNW 1023,7 56 0 0,0
16.01.2021 06:00:00 -2,3 -5,5 -2,6 -0,1 0,8 4,7 4 2 13 7 NW 1024,1 53 0 0,0
16.01.2021 05:00:00 -2,4 -5,9 -2,8 -0,1 0,8 4,7 7 4 16 8 NNW 1024,6 65 0 0,0
16.01.2021 04:00:00 -2,3 -5,8 -2,5 0,0 0,8 4,7 9 5 17 9 NNW 1024,8 62 0 0,0
16.01.2021 03:00:00 -2,1 -5,9 -2,3 0,0 0,9 4,7 9 5 16 9 NNW 1025,0 66 0 0,0
16.01.2021 02:00:00 -2,1 -5,8 -2,3 0,0 0,9 4,7 10 5 17 9 NW 1025,3 63 0 0,0
16.01.2021 01:00:00 -2,3 -6,1 -2,7 0,0 0,9 4,7 10 5 18 10 NNW 1025,4 64 0 0,0
16.01.2021 00:00:00 -2,2 -6,2 -2,6 0,0 0,9 4,7 9 5 22 12 NNW 1025,7 63 0 0,0
15.01.2021 23:00:00 -2,4 -6,3 -3,4 0,1 0,9 4,7 11 6 24 13 N 1026,0 56 0 0,0
15.01.2021 22:00:00 -2,2 -6,7 -2,6 0,1 1,0 4,8 16 8 27 15 N 1025,9 59 0 0,0
15.01.2021 21:00:00 -2,5 -7,0 -3,0 0,1 1,0 4,8 16 9 31 17 N 1026,0 71 0 0,0
15.01.2021 20:00:00 -3,0 -6,8 -3,7 0,1 1,0 4,8 8 4 19 10 NNW 1026,1 69 0 0,0
15.01.2021 19:00:00 -2,8 -7,1 -3,7 0,2 1,0 4,8 12 7 26 14 N 1025,9 65 0 0,0
15.01.2021 18:00:00 -2,8 -7,4 -3,5 0,2 1,0 4,8 16 9 28 15 N 1025,9 75 0 0,0
15.01.2021 17:00:00 -2,6 -7,6 -2,8 0,2 1,0 4,8 16 9 27 14 NNW 1025,5 75 0 0,0
15.01.2021 16:00:00 -2,5 -7,1 -2,5 0,2 1,0 4,8 19 10 32 17 NNW 1025,2 61 0 0,0
15.01.2021 15:00:00 -2,0 -7,5 -2,0 0,2 1,0 4,8 21 11 34 18 NNW 1024,8 75 2 0,0
15.01.2021 14:00:00 -2,1 -7,6 -2,2 0,2 1,0 4,8 20 11 32 17 NNW 1024,5 75 41 0,0
15.01.2021 13:00:00 -1,3 -7,2 -1,6 0,3 1,1 4,8 17 9 35 19 NNW 1024,5 75 52 0,0
15.01.2021 12:00:00 -0,9 -6,1 -1,0 0,3 1,1 4,8 24 13 36 20 NNW 1024,3 61 43 0,0
15.01.2021 11:00:00 -0,7 -4,6 -1,0 0,3 1,1 4,8 19 10 32 17 N 1024,1 58 0 0,0
15.01.2021 10:00:00 -0,3 -3,0 -0,6 0,3 1,1 4,8 19 10 33 18 N 1023,3 39 0 0,0
15.01.2021 09:00:00 -0,3 -3,0 -0,8 0,3 1,1 4,8 17 9 29 16 NNW 1022,8 49 0 0,0
15.01.2021 08:00:00 -0,4 -3,9 -1,0 0,3 1,1 4,8 16 8 24 13 NW 1022,2 48 0 0,0
15.01.2021 07:00:00 -0,4 -4,3 -1,0 0,3 1,1 4,8 11 6 25 13 NNW 1021,9 51 0 0,0
15.01.2021 06:00:00 -0,3 -3,9 -0,8 0,3 1,1 4,8 16 8 24 13 NNW 1021,8 51 0 0,0
15.01.2021 05:00:00 -0,1 -3,3 -0,7 0,3 1,1 4,8 10 5 22 12 NNW 1021,8 54 0 0,0
15.01.2021 04:00:00 0,0 -2,9 -0,6 0,3 1,1 4,8 16 9 27 14 N 1021,9 53 0 0,0
15.01.2021 03:00:00 0,3 -2,2 -0,3 0,3 1,2 4,8 13 7 21 11 NNW 1021,8 43 0 0,0
15.01.2021 02:00:00 0,4 -1,9 -0,3 0,3 1,2 4,8 13 7 20 11 NNW 1021,5 43 0 0,0
15.01.2021 01:00:00 0,6 -2,2 -0,5 0,3 1,2 4,8 11 6 27 15 NNW 1021,5 57 0 0,0
15.01.2021 00:00:00 0,0 -1,7 -0,8 0,4 1,3 4,8 9 5 13 7 NW 1021,6 42 0 0,0
14.01.2021 23:00:00 -0,4 -1,8 -2,0 0,4 1,3 4,9 11 6 16 9 NW 1021,3 39 0 0,0
14.01.2021 22:00:00 0,7 -1,1 -1,2 0,5 1,4 4,9 10 5 15 8 NNW 1021,1 41 0 0,0
14.01.2021 21:00:00 1,4 -0,5 0,5 0,5 1,4 4,9 9 5 22 12 NNW 1020,9 49 0 0,0
14.01.2021 20:00:00 0,9 -0,3 -0,7 0,8 1,5 4,9 15 8 27 14 NNE 1020,4 42 0 0,0
14.01.2021 19:00:00 2,1 -0,1 0,8 1,2 1,5 4,9 11 6 24 13 N 1020,1 48 0 0,0
14.01.2021 18:00:00 2,3 -0,1 1,2 1,2 1,4 4,9 14 8 26 14 N 1019,8 59 0 0,0
14.01.2021 17:00:00 2,1 0,6 1,3 1,3 1,4 4,9 13 7 27 15 N 1019,5 53 0 0,0
14.01.2021 16:00:00 2,1 1,0 1,4 1,5 1,3 4,9 19 10 31 17 N 1018,8 22 0 0,3
14.01.2021 15:00:00 2,9 1,4 2,6 1,4 1,2 4,9 17 9 30 16 N 1018,0 21 5 0,0
14.01.2021 14:00:00 2,4 1,2 1,6 1,0 1,2 4,9 18 10 31 17 N 1017,4 60 0 0,0
14.01.2021 13:00:00 1,7 0,8 1,2 0,6 1,2 4,9 19 11 30 16 NNW 1017,2 19 0 0,3
14.01.2021 12:00:00 1,8 0,6 1,1 0,5 1,2 4,9 19 10 28 15 NNW 1017,0 35 0 0,0
14.01.2021 11:00:00 1,9 0,0 1,0 0,5 1,1 4,9 14 8 26 14 NW 1016,2 26 0 0,0
14.01.2021 10:00:00 1,9 -0,1 0,8 0,5 1,1 4,9 17 9 30 16 NNW 1015,4 41 0 0,0
14.01.2021 09:00:00 1,6 -0,2 0,5 0,4 1,1 4,9 16 8 26 14 NNW 1014,5 44 0 0,0
14.01.2021 08:00:00 1,1 -0,7 -0,5 0,4 1,1 4,9 14 8 26 14 NW 1013,5 41 0 0,0
14.01.2021 07:00:00 1,6 0,0 0,3 0,4 1,2 4,9 16 8 37 20 NNW 1012,5 41 0 0,3
14.01.2021 06:00:00 1,6 0,5 0,7 0,4 1,2 4,9 23 13 39 21 N 1011,5 69 0 0,0
14.01.2021 05:00:00 2,3 0,6 0,2 0,4 1,2 4,9 20 11 42 23 NNE 1010,0 53 0 0,2
14.01.2021 04:00:00 2,6 -0,3 1,1 0,4 1,2 4,9 19 10 38 21 NE 1008,7 57 0 0,0
14.01.2021 03:00:00 2,1 0,7 1,0 0,4 1,2 4,9 22 12 36 19 NNE 1006,9 54 0 0,0
14.01.2021 02:00:00 2,0 0,9 1,0 0,4 1,2 4,9 24 13 37 20 NE 1004,8 63 0 0,0
14.01.2021 01:00:00 1,4 0,7 0,5 0,4 1,2 4,9 18 10 36 20 NNE 1002,9 51 0 0,2
14.01.2021 00:00:00 1,4 0,5 0,4 0,4 1,2 4,9 17 9 29 15 NNE 1001,1 66 0 0,0
13.01.2021 23:00:00 0,8 0,3 -0,1 0,4 1,2 4,9 14 8 23 13 NNE 999,4 60 0 0,0
13.01.2021 22:00:00 0,5 0,0 -0,1 0,4 1,2 5,0 11 6 22 12 NNW 998,1 8 0 0,2
13.01.2021 21:00:00 0,4 0,0 -0,1 0,4 1,2 5,0 15 8 24 13 W 997,2 7 0 1,2
13.01.2021 20:00:00 0,6 0,1 0,0 0,4 1,3 5,0 17 9 30 16 W 997,0 14 0 0,3
13.01.2021 19:00:00 0,6 0,1 0,0 0,4 1,3 5,0 14 8 25 14 WSW 996,3 8 0 0,1
13.01.2021 18:00:00 0,9 0,1 0,1 0,4 1,3 5,0 18 10 40 21 W 996,6 19 0 0,0
13.01.2021 17:00:00 0,9 0,2 -0,1 0,5 1,4 5,0 11 6 22 12 SW 996,8 62 0 0,1
13.01.2021 16:00:00 0,3 0,1 -0,1 0,7 1,4 5,0 13 7 41 22 WSW 997,8 1,9 0 4,7
13.01.2021 15:00:00 2,8 1,2 1,8 1,1 1,3 5,0 24 13 47 26 SW 998,2 8 0 0,6
13.01.2021 14:00:00 3,0 0,6 1,8 0,8 1,3 5,0 23 12 39 21 SW 999,5 16 0 0,0
13.01.2021 13:00:00 3,0 0,4 2,0 0,6 1,3 5,0 17 9 37 20 SW 1001,0 36 0 0,0
13.01.2021 12:00:00 2,6 0,3 1,7 0,5 1,4 5,0 16 9 34 18 SW 1002,2 41 1 0,0
13.01.2021 11:00:00 2,0 0,0 1,3 0,4 1,4 5,0 18 10 36 19 WSW 1003,1 43 0 0,0
13.01.2021 10:00:00 1,6 -0,2 0,8 0,4 1,4 5,0 19 10 33 18 WSW 1003,5 46 0 0,0
13.01.2021 09:00:00 1,4 -0,2 0,6 0,4 1,4 5,0 18 10 33 18 WSW 1003,6 55 0 0,0
13.01.2021 08:00:00 1,5 -0,3 0,4 0,4 1,4 5,0 21 11 37 20 WSW 1003,5 51 0 0,0
13.01.2021 07:00:00 1,2 -0,3 -0,1 0,4 1,5 5,0 21 12 37 20 WSW 1003,5 58 0 0,0
13.01.2021 06:00:00 1,5 0,1 0,5 0,4 1,5 5,0 19 10 39 21 WSW 1003,6 39 0 0,0
13.01.2021 05:00:00 1,3 0,0 0,5 0,4 1,5 5,0 18 10 28 15 WSW 1003,4 37 0 0,7
13.01.2021 04:00:00 1,0 0,1 0,2 0,5 1,6 5,0 19 10 38 20 WSW 1003,4 23 0 1,0
13.01.2021 03:00:00 1,2 0,0 0,3 0,5 1,6 5,0 20 11 38 21 WSW 1003,3 23 0 0,1
13.01.2021 02:00:00 1,0 -0,3 0,5 0,5 1,7 5,0 18 10 33 18 WSW 1003,1 46 0 0,0
13.01.2021 01:00:00 1,0 -0,3 0,4 0,5 1,7 5,0 19 10 33 18 WSW 1003,2 38 0 0,0
13.01.2021 00:00:00 0,9 -0,4 0,0 0,5 1,8 5,0 16 9 25 13 WSW 1003,1 53 0 0,0
12.01.2021 23:00:00 0,8 -0,6 -0,6 0,6 1,9 5,0 14 8 24 13 WSW 1002,7 52 0 0,0
12.01.2021 22:00:00 0,5 -0,6 -0,8 0,6 2,0 5,0 13 7 25 13 W 1002,3 58 0 0,0
12.01.2021 21:00:00 0,9 0,0 -0,3 0,7 2,1 5,0 16 9 24 13 W 1001,9 58 0 0,0
12.01.2021 20:00:00 0,9 0,2 0,3 0,9 2,2 5,0 14 8 24 13 W 1001,1 55 0 0,1
12.01.2021 19:00:00 0,8 0,3 0,1 1,1 2,4 5,0 12 6 27 14 WSW 1000,4 32 0 0,8
12.01.2021 18:00:00 1,8 0,5 1,0 1,2 2,6 5,0 13 7 19 10 SW 999,9 55 0 0,0
12.01.2021 17:00:00 1,9 0,3 0,2 1,6 2,8 5,0 8 5 16 9 SW 1000,0 48 0 0,0
12.01.2021 16:00:00 2,7 0,5 1,0 2,5 2,8 5,0 10 6 21 12 WSW 1000,0 52 38 0,0
12.01.2021 15:00:00 3,7 1,1 3,6 3,1 2,7 5,0 12 6 23 12 WSW 999,7 75 58 0,0
12.01.2021 14:00:00 3,4 1,3 3,2 3,2 2,6 5,0 10 5 19 11 WSW 999,7 66 24 0,0
12.01.2021 13:00:00 3,1 1,4 3,2 2,7 2,5 5,0 9 5 17 9 SW 999,8 57 13 0,0
12.01.2021 12:00:00 2,8 1,4 2,7 2,6 2,4 5,0 9 5 14 7 SW 1000,0 75 1 0,0
12.01.2021 11:00:00 2,7 1,0 2,4 2,5 2,4 5,0 8 4 14 8 SW 1000,0 70 0 0,0
12.01.2021 10:00:00 2,9 1,4 2,3 2,3 2,4 5,0 8 4 15 8 WSW 999,8 51 0 0,0
12.01.2021 09:00:00 3,0 1,7 2,4 2,3 2,4 5,1 6 4 18 10 W 999,4 70 0 0,0
12.01.2021 08:00:00 3,2 1,7 2,3 2,5 2,3 5,1 13 7 31 17 WNW 998,8 75 0 0,6
12.01.2021 07:00:00 4,0 3,3 3,4 2,4 2,2 5,1 18 10 40 22 WSW 997,9 6 0 0,4
12.01.2021 06:00:00 3,5 2,3 2,8 2,1 2,2 5,1 20 11 45 24 SW 997,7 19 0 0,2
12.01.2021 05:00:00 2,6 1,5 2,0 1,9 2,2 5,1 23 12 46 25 SSW 998,1 15 0 0,4
12.01.2021 04:00:00 2,3 1,1 1,7 2,0 2,2 5,1 20 11 39 21 SSW 999,1 15 0 0,4
12.01.2021 03:00:00 2,6 1,4 1,9 2,0 2,2 5,1 22 12 44 24 SSW 1000,3 14 0 1,1
12.01.2021 02:00:00 2,7 1,5 2,0 2,0 2,1 5,1 23 12 44 24 SSW 1001,2 13 0 0,9
12.01.2021 01:00:00 2,8 1,4 2,0 2,0 2,1 5,1 24 13 48 26 SSW 1002,2 12 0 0,4
12.01.2021 00:00:00 3,0 1,2 2,5 1,9 2,1 5,1 26 14 41 22 SSW 1003,3 21 0 0,0
11.01.2021 23:00:00 2,8 1,3 2,1 1,9 2,1 5,1 21 12 49 26 SSW 1004,4 22 0 0,0

tt = temperature
td = dewpoint
tt 5cm = temperature 5cm
tt -5cm = temperature -5cm
tt -20cm = temperature -20cm
tt -100cm = temperature -100cm
ff = wind speed
fx = gusts
dd = wind direction
ppp = reduced air pressure
vv = visibility
sd = sunshine duration
rr = precipitation

Next stations